Regional Weather Roundup
Issued by NWS Charleston, WV

Home | Current Version | Previous Version | Text Only | Print | Product List | Glossary Off
Versions: 1 2 3 4 5 6 7 8 9 10 11 12 13 14 15 16 17 18 19 20 21 22 23 24 25 26 27 28 29 30 31 32 33 34 35 36 37

000
ASUS41 KRLX 230910
RWRRLX
West Virginia Regional Weather Roundup
National Weather Service Charleston WV
500 AM EDT THU OCT 23 2014

Note: "fair" indicates few or no clouds below 12,000 feet with no
significant weather and/or obstructions to visibility.

WVZ003-231000-
Northern Panhandle of West Virginia

CITY           SKY/WX    TMP DP  RH WIND       PRES   REMARKS
WHEELING       CLOUDY    45  41  86 NW8       30.14S
$$

WVZ009-231000-
Northwest West Virginia

CITY           SKY/WX    TMP DP  RH WIND       PRES   REMARKS
PARKERSBURG    CLOUDY    46  41  82 NW5       30.21S
$$

WVZ006-231000-
Western West Virginia

CITY           SKY/WX    TMP DP  RH WIND       PRES   REMARKS
HUNTINGTON     CLOUDY    47  42  83 NW3       30.21S
$$

WVZ015-231000-
West Central West Virginia

CITY           SKY/WX    TMP DP  RH WIND       PRES   REMARKS
CHARLESTON     CLOUDY    47  42  83 NW5       30.20R
$$

WVZ022-031-231000-
North Central West Virginia

CITY           SKY/WX    TMP DP  RH WIND       PRES   REMARKS
CLARKSBURG     CLOUDY    46  41  82 W8        30.14S
MORGANTOWN     CLOUDY    48  39  71 VRB5      30.13S
$$

WVZ025-035-042-045-231000-
Southern West Virginia

CITY           SKY/WX    TMP DP  RH WIND       PRES   REMARKS
BECKLEY        CLOUDY    42  38  85 NW10      30.15R
LOGAN          CLOUDY    45  43  93 NW5       30.19R
BLUEFIELD      CLOUDY    43  38  82 NW7       30.15R
LEWISBURG      CLOUDY    46  38  74 NW8       30.11S
$$

WVZ047-231000-
Northern Mountains of West Virginia

CITY           SKY/WX    TMP DP  RH WIND       PRES   REMARKS
ELKINS         CLOUDY    43  41  93 NW7       30.12S
$$

WVZ052-231000-
Eastern Panhandle of West Virginia

CITY           SKY/WX    TMP DP  RH WIND       PRES   REMARKS
MARTINSBURG    CLOUDY    51  39  63 NW13      29.96S
PETERSBURG     CLOUDY    50  38  64 NW6       30.06R
$$



USA.gov is the U.S. government's official web portal to all federal, state and local government web resources and services.